Lapse_Rate
5.4 5.4 4.1 4.0 4.1 4.1 4.8 5.1 5.2 5.3 5.2 5.3 5.5 5.3 5.3 5.1 4.8 5.5 5.8 5.5 5.4 5.6 6.3 6.8 6.9 6.9 6.8 7.1 6.7 5.8 5.5 5.6 5.8 6.2 7.0 7.3 6.6 7.3 7.4 7.3 6.7 6.6 6.5 6.5 6.5
5.1 4.7 4.2 4.1 4.4 4.8 5.7 6.4 6.7 6.2 5.9 5.8 5.5 5.4 5.1 5.2 4.8 5.2 6.0 6.1 5.6 6.1 6.1 6.6 6.8 6.9 6.5 6.6 6.5 6.6 6.2 6.0 6.6 6.7 6.7 6.3 6.5 7.0 7.4 7.5 6.6 6.4 6.5 6.3 6.3
5.0 4.2 4.1 4.3 4.9 5.7 7.0 7.4 7.3 7.3 7.2 6.5 6.0 5.6 5.5 5.0 5.0 5.1 5.2 6.4 6.4 6.6 6.2 6.5 6.6 6.7 6.7 6.5 6.2 6.0 6.0 6.4 6.5 6.1 5.7 6.0 6.5 6.7 6.7 7.2 6.7 6.7 6.7 6.6 6.5
5.1 4.6 4.1 4.9 5.2 6.8 7.0 7.4 7.4 7.3 7.4 7.3 6.9 5.9 5.7 5.1 5.1 5.1 5.6 6.4 6.7 6.8 6.1 6.3 6.4 6.4 6.6 6.6 6.4 6.5 6.3 6.6 7.2 6.1 5.6 6.5 6.3 6.7 7.1 6.9 6.9 6.4 6.6 6.6 6.5
5.0 4.9 4.8 5.5 5.9 7.1 7.0 7.2 7.3 7.3 7.3 7.4 7.4 6.8 6.0 5.6 5.9 5.3 5.5 6.4 6.5 6.4 6.2 6.2 6.4 6.5 6.5 6.7 6.3 6.3 6.1 6.5 7.0 6.9 6.4 6.2 6.9 7.5 7.3 7.1 6.9 6.6 6.5 6.4 6.5
5.4 5.0 5.2 6.2 6.5 7.3 7.3 7.4 7.4 7.4 7.3 7.5 7.7 7.8 7.4 6.6 6.0 5.3 5.5 5.8 6.4 6.2 6.3 6.3 6.3 6.4 6.6 6.5 6.6 6.4 6.8 6.7 6.3 6.8 7.1 7.4 7.2 7.6 7.6 7.3 7.1 6.5 6.4 6.8 6.8
5.6 5.4 5.7 6.6 7.0 7.2 7.4 7.6 7.7 7.6 7.6 7.6 8.0 7.9 7.8 6.8 6.6 6.3 5.7 5.4 6.2 6.3 6.4 6.4 6.5 6.5 6.5 6.5 6.5 6.5 7.1 7.1 6.2 6.5 7.0 7.1 7.5 7.6 7.8 7.2 7.3 6.9 6.7 6.8 7.0
5.8 5.7 6.2 6.8 7.2 6.9 7.4 7.6 7.8 8.0 8.0 8.0 8.0 7.9 8.0 7.4 6.8 6.5 6.0 5.9 6.2 6.5 6.4 6.3 6.5 6.4 6.2 6.5 6.5 6.5 6.7 6.9 6.5 6.3 6.8 7.2 7.3 7.5 7.8 7.3 7.2 7.8 7.3 6.8 7.0
6.0 5.9 6.6 7.3 6.8 7.0 7.4 7.8 8.0 8.1 8.3 8.3 8.1 8.0 7.9 7.6 7.2 6.9 6.3 6.1 6.0 6.7 6.6 6.5 6.3 6.1 6.1 6.2 6.4 6.4 6.5 6.8 7.0 6.5 6.6 7.2 7.3 7.5 7.5 7.3 7.4 7.4 7.5 7.2 7.1
6.1 6.3 6.5 6.8 6.1 6.0 6.3 7.3 7.8 8.0 8.1 8.2 8.1 7.8 7.5 7.3 7.3 7.2 6.6 6.0 6.1 6.7 6.8 6.4 6.2 6.1 6.1 6.1 5.9 6.0 6.0 6.6 7.0 6.5 6.4 7.1 7.3 7.3 7.4 7.3 7.4 7.3 7.1 7.2 6.9
6.5 6.3 6.5 6.9 6.6 6.5 6.3 6.4 6.7 7.3 7.2 7.3 7.4 7.3 7.4 7.3 7.2 7.4 7.0 6.3 6.2 6.7 6.5 6.4 6.3 6.0 6.2 6.1 6.2 6.8 7.0 7.0 7.1 7.0 7.0 7.1 7.2 7.1 7.2 7.2 7.3 7.2 7.3 7.4 7.1
6.6 6.6 6.8 6.6 6.6 6.8 6.6 6.5 6.4 6.3 6.6 7.1 7.0 7.2 7.3 7.3 7.3 7.4 7.3 6.4 5.9 6.1 6.4 6.3 6.0 6.4 6.5 6.4 6.6 6.6 6.7 6.8 7.1 6.9 7.0 7.2 7.2 7.1 7.1 7.1 7.2 7.4 7.3 7.1 7.1
6.8 6.9 6.9 6.9 6.9 6.8 6.6 6.3 6.2 6.3 6.4 6.4 6.7 6.8 6.9 6.9 7.1 7.4 7.1 6.8 6.5 6.1 6.2 6.1 6.2 6.4 6.4 6.5 6.7 6.5 6.7 7.0 6.9 6.9 7.0 6.8 6.4 6.6 6.6 6.9 7.1 7.2 7.4 7.2 7.0
7.2 7.3 7.2 7.0 7.0 6.6 6.4 6.2 6.6 6.7 6.5 6.2 6.5 6.9 6.9 6.9 6.6 6.9 7.1 7.0 6.7 6.2 6.2 6.1 6.3 6.2 6.3 6.5 6.5 6.4 7.1 7.2 7.1 6.7 6.5 6.8 6.2 7.1 7.3 7.1 7.2 7.5 7.6 7.2 6.9
7.2 7.3 7.1 7.2 7.0 7.0 6.3 6.0 6.1 6.3 6.0 6.2 6.6 6.7 6.3 6.8 6.6 6.5 6.6 6.7 6.5 6.3 6.3 6.3 6.1 6.1 6.2 6.5 6.4 6.6 7.2 7.0 7.1 7.0 6.9 7.0 6.8 6.6 7.1 6.7 7.0 7.5 7.7 7.1 6.8
6.9 7.4 7.2 6.8 7.0 7.4 7.2 7.0 6.3 6.0 5.9 6.5 6.5 6.3 6.4 6.8 6.6 6.9 6.3 6.5 6.5 6.3 6.0 6.2 6.3 5.8 6.1 6.4 6.5 6.7 7.0 7.0 6.9 6.9 6.2 6.9 6.7 6.9 7.1 7.4 7.8 7.0 6.8 7.1 7.0
6.9 7.1 7.2 7.0 7.0 7.2 7.1 7.3 6.8 5.3 5.5 6.1 6.2 6.3 6.4 6.1 6.2 6.5 6.4 6.5 6.2 6.1 6.2 6.5 6.6 6.4 6.7 6.5 6.6 6.8 6.6 6.2 6.6 6.0 5.0 7.1 6.7 6.4 6.9 7.3 7.4 7.3 7.2 7.0 6.9
6.7 6.8 7.0 6.7 7.1 7.4 7.0 7.2 6.3 5.2 5.8 6.0 6.0 6.2 6.5 6.4 6.2 6.2 6.2 6.3 6.2 6.5 6.5 6.6 6.3 6.1 6.2 6.5 6.5 6.3 6.5 6.8 5.8 5.4 5.6 7.0 6.4 6.6 7.2 6.7 6.9 6.9 6.6 6.7 6.7
6.5 6.9 6.6 7.3 7.1 7.2 7.1 7.1 5.8 5.7 5.7 5.6 6.1 5.9 6.1 6.3 6.4 6.4 6.5 6.5 6.5 6.6 6.7 6.5 6.0 6.0 6.0 6.0 6.2 6.0 6.1 6.7 7.0 6.9 6.3 7.1 6.7 6.4 6.9 6.5 6.7 6.7 6.7 6.5 6.4
6.4 6.8 6.8 6.8 7.0 6.9 6.8 6.3 5.8 6.0 6.1 5.9 6.1 6.2 6.0 6.2 6.3 6.3 6.3 6.1 6.4 6.3 6.8 6.4 5.8 5.6 5.7 5.9 6.0 6.2 6.2 6.3 6.7 6.2 6.4 6.1 6.5 6.9 6.5 6.7 6.6 6.6 6.7 6.2 6.0
6.4 6.7 6.8 6.9 6.9 6.8 6.9 6.1 5.8 6.0 6.2 6.2 6.3 6.2 6.2 6.1 6.1 6.1 6.3 6.3 6.3 6.3 6.2 6.0 5.9 5.3 5.3 5.5 5.6 6.0 6.2 6.3 6.8 7.0 5.7 6.0 6.7 6.9 6.8 7.1 6.9 6.3 6.0 5.9 6.0
6.5 6.4 6.7 7.0 6.7 6.6 6.5 6.4 6.3 6.1 6.3 6.3 6.2 6.2 6.2 6.4 6.4 6.3 6.0 6.3 6.3 6.3 6.2 6.1 6.2 5.6 5.6 5.7 5.7 6.0 6.2 6.6 6.7 6.8 7.0 6.5 6.7 7.2 7.1 6.9 6.3 6.0 5.9 5.9 5.8
6.6 6.3 6.4 6.7 6.7 6.5 6.1 6.2 6.3 6.3 6.3 6.3 6.2 6.4 6.3 6.3 6.4 6.3 6.4 6.4 6.1 6.3 6.2 6.3 5.9 5.5 5.3 5.4 5.4 5.6 5.9 6.1 6.3 6.3 6.6 5.8 6.5 7.2 7.0 6.4 6.1 6.0 5.8 5.7 5.8
6.7 6.4 6.2 6.3 6.4 6.3 6.3 5.8 5.9 6.1 6.3 6.5 6.6 6.3 6.2 6.2 6.3 6.3 6.4 6.5 6.4 6.3 6.3 6.3 6.2 6.1 6.0 6.4 6.4 6.1 6.2 5.9 5.9 5.7 6.5 6.7 6.4 6.8 6.7 6.6 6.2 6.0 6.1 6.2 6.2
6.0 6.4 6.3 6.3 6.5 6.5 6.2 6.2 6.0 5.9 6.0 6.3 6.5 6.4 6.3 6.2 6.1 6.1 6.1 6.4 6.6 6.5 6.3 6.4 6.5 6.3 6.4 6.5 6.5 6.5 6.5 6.2 6.1 6.3 6.3 6.8 6.3 6.5 6.8 6.7 6.4 6.5 6.4 6.4 6.3
5.7 6.1 6.2 6.4 6.2 6.5 6.1 6.1 6.0 6.0 5.9 6.1 6.1 6.2 6.2 6.2 6.4 6.3 6.3 6.3 6.4 6.5 6.6 6.6 6.7 6.5 6.4 6.6 6.4 6.5 6.5 6.3 6.1 6.0 5.9 6.3 6.5 6.6 6.5 6.4 6.4 6.3 6.3 6.2 6.1
5.5 6.1 6.5 5.9 6.1 6.2 6.0 6.2 6.3 6.0 6.1 6.0 6.1 6.1 6.1 6.2 6.2 6.3 6.3 6.3 6.5 6.4 6.5 6.7 6.7 6.6 6.6 6.3 6.1 6.2 7.3 7.1 6.7 6.7 6.6 5.7 7.0 6.5 6.5 6.3 6.3 6.4 6.1 6.0 5.9
Wind_Speed
24 23 23 22 19 18 16 15 11 10 9 11 10 7 6 5 6 4 6 8 8 12 3 6 4 3 2 2 8 5 3 5 6 8 11 10 12 2 3 6 5 3 6 6 5
24 25 24 21 18 18 16 15 11 7 8 6 7 6 5 3 5 10 14 19 21 15 5 10 8 5 1 4 5 5 8 19 23 20 10 15 2 12 3 4 6 6 9 8 6
24 27 26 23 19 15 16 14 10 7 7 7 6 5 1 3 3 7 16 29 25 19 7 5 7 5 4 3 5 7 8 13 10 21 8 7 9 6 5 2 4 9 11 8 7
28 27 25 24 20 15 14 13 7 5 8 5 4 2 2 3 5 4 24 28 30 19 14 7 9 6 5 6 11 7 10 5 7 5 10 8 7 1 3 3 8 7 12 8 11
27 28 28 26 22 12 11 10 5 4 5 4 3 1 1 2 8 10 19 9 18 15 16 9 8 7 6 5 6 8 2 13 10 4 3 6 3 2 3 4 11 10 7 9 9
28 29 27 25 20 9 6 6 6 3 4 2 1 3 1 4 7 7 1 3 10 13 17 10 8 7 6 6 8 8 12 9 3 5 1 1 3 3 1 4 8 9 2 3 9
29 30 29 26 20 7 4 4 5 4 3 2 2 1 3 9 6 10 8 3 5 4 12 6 5 10 8 2 5 4 13 7 3 5 2 3 6 6 2 4 3 1 6 3 2
28 29 28 27 12 5 3 3 4 3 3 3 2 0 4 7 15 6 4 2 1 2 5 10 4 3 2 2 4 5 5 4 4 7 3 5 6 10 5 3 7 5 5 6 5
27 27 25 28 16 5 1 3 5 5 3 1 2 3 5 10 3 5 1 5 2 2 5 9 4 2 3 6 3 4 4 6 4 8 5 4 4 8 6 8 8 6 7 6 6
25 25 22 21 19 9 4 4 5 3 4 7 1 1 3 5 8 2 4 7 2 0 4 7 5 4 4 6 13 8 4 4 7 8 7 7 8 4 4 10 10 7 7 8 8
22 22 20 18 16 14 6 2 3 4 4 2 2 3 6 5 7 6 4 5 3 2 7 7 5 15 15 10 2 9 8 5 7 7 7 14 8 9 7 3 8 7 7 6 6
20 19 19 17 16 14 4 4 4 2 5 4 3 2 4 3 2 5 1 5 5 9 7 7 10 6 8 10 9 4 3 8 3 7 14 10 14 9 12 7 8 9 8 5 2
23 18 17 15 13 4 6 3 5 4 2 3 1 2 3 2 3 4 4 0 1 5 12 3 5 11 10 9 9 4 7 4 5 2 2 3 9 14 13 6 7 5 5 4 6
22 20 16 17 3 1 3 2 4 1 2 7 6 3 2 2 2 4 2 2 4 9 7 3 1 9 7 8 4 4 6 10 11 5 4 5 4 9 15 9 7 7 6 7 7
25 21 14 7 3 2 1 5 5 2 4 13 4 2 1 1 3 4 3 2 8 6 4 2 5 6 5 4 3 6 6 7 3 6 3 2 1 6 8 9 8 8 7 7 6
27 20 10 3 2 3 2 3 2 5 6 7 7 4 4 5 2 3 2 5 3 9 9 4 3 4 2 3 3 8 3 8 4 3 1 6 6 5 6 19 6 4 8 8 8
29 16 4 1 1 3 3 2 4 6 2 7 3 5 7 4 5 3 3 4 4 5 3 5 3 3 2 3 5 4 6 2 1 0 5 3 7 11 5 4 8 11 9 8 8
30 16 7 4 5 3 2 3 9 2 4 5 4 5 1 3 4 3 5 3 5 5 4 4 2 2 0 1 4 9 3 5 6 4 4 2 7 6 7 9 12 11 9 8 8
23 1 2 1 9 3 1 7 4 4 4 5 5 3 2 2 6 3 2 2 2 2 5 4 3 1 4 2 7 5 5 4 3 2 3 4 4 6 5 8 11 12 9 8 8
2 3 2 6 8 2 4 5 2 5 4 4 3 1 2 3 3 4 2 5 2 5 3 4 5 2 3 1 2 3 4 2 2 2 4 4 4 4 7 10 10 9 8 7 6
2 3 2 7 3 4 3 3 3 4 1 2 4 2 2 1 1 3 2 0 6 5 6 5 3 3 3 4 6 4 3 3 0 4 4 2 5 5 14 14 12 9 8 8 8
3 2 2 2 4 2 2 4 1 3 4 3 3 3 3 2 3 3 4 1 5 2 6 2 4 3 2 8 8 4 4 3 3 4 1 3 5 4 8 9 8 7 8 7 8
4 2 3 3 3 3 4 3 3 2 2 3 2 3 2 1 2 3 4 2 3 2 3 3 2 3 2 4 2 5 6 7 1 2 4 4 5 1 7 7 7 8 7 7 7
3 4 4 4 1 2 4 4 2 2 2 1 2 2 3 1 1 3 2 2 2 2 2 1 3 5 6 4 4 5 5 6 5 3 2 5 3 3 7 9 7 7 8 8 8
3 1 2 4 4 6 4 3 5 4 3 3 3 5 4 3 3 4 2 1 2 3 2 3 3 2 1 3 3 4 4 7 6 5 6 3 6 11 12 9 9 8 6 7 7
2 3 4 3 7 5 4 3 3 4 1 5 2 8 5 0 1 3 5 5 5 4 3 2 3 3 3 3 3 4 7 8 8 6 6 3 5 6 4 4 6 9 8 8 7
2 3 3 4 5 4 3 8 10 8 4 4 3 4 4 2 1 1 0 1 5 7 4 4 4 3 3 3 1 6 13 14 6 6 12 9 9 0 3 7 7 8 8 8 7
Wind_Direction
336 339 334 330 324 315 313 308 303 311 303 295 297 288 286 268 297 260 240 233 225 252 297 138 149 235 331 226 132 139 189 250 246 223 234 321 7 225 160 97 39 75 116 139 123
340 334 333 326 326 316 314 308 304 309 310 312 300 291 280 282 266 264 237 239 241 249 199 159 179 184 187 194 164 161 202 204 224 240 304 345 81 281 69 97 92 78 97 111 102
337 338 338 330 323 316 309 307 312 306 310 312 310 332 337 240 256 240 262 226 225 217 226 171 157 170 175 153 202 188 215 213 202 246 323 297 232 252 119 44 155 169 151 136 128
344 340 340 336 321 315 316 321 306 319 328 350 332 295 283 263 215 148 343 198 204 199 207 198 168 169 168 183 211 194 217 232 233 189 209 254 285 245 63 146 87 162 151 135 143
350 348 345 338 339 312 319 345 340 339 352 357 338 210 132 199 256 306 334 200 203 194 196 184 171 182 173 183 189 225 166 219 246 224 281 233 241 23 97 131 86 71 92 155 157
352 350 351 347 345 319 303 328 343 348 358 16 28 90 57 247 246 303 232 318 206 209 197 185 174 164 187 194 203 177 241 253 201 163 329 229 301 39 71 62 104 110 60 82 144
355 355 354 349 338 331 329 332 353 350 350 349 46 188 279 251 301 30 35 23 39 243 224 198 191 189 151 180 218 307 200 236 210 148 139 77 322 226 304 23 28 199 169 241 242
357 1 360 358 8 8 321 347 354 342 328 314 114 251 257 263 279 298 172 148 134 41 232 232 199 346 166 205 87 160 119 153 189 148 180 126 249 285 282 319 283 277 253 240 250
360 4 6 15 24 55 182 336 331 300 281 206 196 144 271 314 228 244 289 251 354 148 233 244 158 191 127 121 60 148 179 172 179 170 151 162 239 233 250 225 250 256 276 268 264
2 1 3 14 27 31 348 302 306 301 200 183 125 111 267 319 319 275 68 87 44 269 181 203 165 157 145 165 194 167 186 225 176 196 163 203 240 252 295 201 218 235 270 273 249
1 357 356 3 6 349 338 351 23 359 359 293 291 231 309 326 279 110 104 79 337 178 174 181 167 194 188 163 129 140 195 179 222 211 180 220 242 247 270 193 185 216 237 252 240
351 351 349 349 349 348 22 71 38 336 315 3 341 26 93 285 106 90 28 133 212 174 143 164 206 178 155 148 215 149 151 222 288 226 192 210 226 206 242 220 197 214 235 259 45
340 347 342 338 333 42 85 38 345 357 231 257 175 38 318 11 40 143 184 181 67 212 139 102 159 163 165 183 202 212 187 215 188 74 62 128 249 237 245 221 215 179 178 160 139
336 340 338 330 16 283 68 351 319 2 74 16 19 87 246 118 122 86 156 349 107 158 164 133 107 147 129 183 156 216 213 245 153 116 180 156 259 231 212 211 196 184 192 172 138
336 332 329 317 266 58 112 324 297 355 34 340 351 228 138 345 113 68 118 273 141 120 171 46 124 127 90 129 34 224 310 167 105 132 126 220 168 254 199 209 201 195 184 165 154
333 325 318 40 218 137 188 348 52 38 17 353 326 20 90 59 100 110 156 237 145 67 56 60 24 46 43 70 22 351 21 53 58 79 298 215 162 263 205 206 174 152 154 148 127
334 321 282 260 204 153 60 55 42 56 3 329 342 25 81 52 83 123 130 63 118 112 59 25 14 344 44 77 351 28 232 93 60 138 223 204 192 247 272 203 162 158 159 151 139
334 324 219 213 172 136 133 79 64 335 320 298 258 191 18 150 82 34 93 70 28 83 121 145 305 188 85 197 165 231 237 153 179 194 228 18 221 246 269 171 142 144 151 152 137
332 34 248 244 188 124 129 57 170 198 251 279 315 347 121 130 125 119 102 92 236 182 131 134 111 143 243 149 133 184 215 180 111 360 76 214 288 317 27 116 133 144 142 143 144
347 314 265 154 144 105 75 130 185 180 236 279 313 359 58 40 146 149 153 172 207 213 158 153 121 163 142 236 63 299 333 93 5 181 239 254 231 228 171 161 154 153 152 156 141
38 7 248 137 92 54 82 143 206 236 207 300 320 345 97 3 62 99 68 201 184 220 197 152 126 135 151 205 163 179 166 237 134 168 195 192 254 201 188 179 165 166 165 161 150
340 35 257 116 43 74 102 197 246 240 192 276 275 321 353 15 36 74 136 146 345 7 152 139 119 153 186 162 177 189 202 205 142 213 216 153 270 311 157 159 149 160 150 149 147
341 280 342 66 56 342 294 257 229 335 32 332 293 315 331 356 94 115 104 272 10 54 154 171 106 101 21 1 234 206 191 177 194 107 222 144 261 66 115 130 152 151 155 158 152
22 3 331 8 331 26 353 306 302 239 243 245 279 340 310 293 289 168 133 164 342 109 249 124 151 165 189 203 143 186 193 170 150 135 227 225 166 178 153 157 174 181 184 173 166
30 18 98 318 314 329 333 273 298 306 261 210 277 234 253 228 206 185 135 116 249 212 257 112 156 154 159 132 145 200 200 182 183 191 163 235 194 200 189 189 194 189 169 158 160
66 26 342 279 294 306 292 298 348 3 332 317 269 323 271 45 316 162 148 173 198 199 194 49 180 91 306 223 232 246 231 222 213 210 246 245 291 215 197 182 152 163 167 173 179
334 324 110 292 332 350 35 345 334 353 280 232 297 342 307 169 283 169 182 143 167 158 193 133 128 92 264 177 282 303 229 211 201 196 207 209 220 53 149 159 166 182 181 184 185